Wetterdaten: Samstag, 13.07.2013
Datum Zeit Temperatur Luftfeuchte Luftdruck Regen Wind Richtung Richtung Taupunkt Windchill Windben
13.07.2013 00:00 10,4 C 82 % 1022,2 hPa 0,0 l/m 2,4 km/h (1 Bft) O-SO 112 7,5 C 10,1 C 0,0 km/h (0 Bft)
13.07.2013 00:05 10,3 C 82 % 1022,2 hPa 0,0 l/m 1,0 km/h (0 Bft) O 90 7,4 C 9,8 C 0,0 km/h (0 Bft)
13.07.2013 00:10 10,2 C 81 % 1022,2 hPa 0,0 l/m 0,5 km/h (0 Bft) O-SO 112 7,1 C 9,7 C 0,0 km/h (0 Bft)
13.07.2013 00:15 10,2 C 81 % 1022,2 hPa 0,0 l/m 0,2 km/h (0 Bft) O-SO 112 7,1 C 9,5 C 0,0 km/h (0 Bft)
13.07.2013 00:20 10,2 C 81 % 1022,7 hPa 0,0 l/m 0,0 km/h (0 Bft) O 90 7,1 C 9,5 C 1,8 km/h (1 Bft)
13.07.2013 00:25 10,2 C 81 % 1022,7 hPa 0,0 l/m 0,2 km/h (0 Bft) S 180 7,1 C 9,5 C 0,0 km/h (0 Bft)
13.07.2013 00:30 10,2 C 81 % 1022,7 hPa 0,0 l/m 0,2 km/h (0 Bft) S 180 7,1 C 9,5 C 0,0 km/h (0 Bft)
13.07.2013 00:35 10,1 C 81 % 1022,7 hPa 0,0 l/m 0,0 km/h (0 Bft) SO 135 7,0 C 9,4 C 0,0 km/h (0 Bft)
13.07.2013 00:40 10,1 C 81 % 1022,6 hPa 0,0 l/m 0,0 km/h (0 Bft) S 180 7,0 C 9,4 C 0,0 km/h (0 Bft)
13.07.2013 00:45 10,0 C 81 % 1022,6 hPa 0,0 l/m 0,0 km/h (0 Bft) S-SW 202 6,9 C 9,2 C 0,0 km/h (0 Bft)
13.07.2013 00:50 9,8 C 82 % 1022,6 hPa 0,0 l/m 0,0 km/h (0 Bft) S-SW 202 6,9 C 9,1 C 0,0 km/h (0 Bft)
13.07.2013 00:55 9,5 C 82 % 1022,6 hPa 0,0 l/m 0,0 km/h (0 Bft) S-SO 157 6,6 C 8,8 C 0,0 km/h (0 Bft)
13.07.2013 01:00 9,3 C 82 % 1022,8 hPa 0,0 l/m 0,0 km/h (0 Bft) N-NW 337 6,4 C 8,6 C 0,0 km/h (0 Bft)
13.07.2013 01:05 9,2 C 82 % 1022,8 hPa 0,0 l/m 0,0 km/h (0 Bft) NW 315 6,3 C 8,5 C 0,0 km/h (0 Bft)
13.07.2013 01:10 9,1 C 82 % 1022,8 hPa 0,0 l/m 0,0 km/h (0 Bft) N-NW 337 6,2 C 8,3 C 0,0 km/h (0 Bft)
13.07.2013 01:15 9,2 C 83 % 1022,8 hPa 0,0 l/m 0,0 km/h (0 Bft) N 360 6,5 C 8,2 C 0,0 km/h (0 Bft)
13.07.2013 01:20 9,1 C 83 % 1022,5 hPa 0,0 l/m 0,0 km/h (0 Bft) W-NW 292 6,4 C 8,2 C 0,0 km/h (0 Bft)
13.07.2013 01:25 8,9 C 83 % 1022,5 hPa 0,0 l/m 0,0 km/h (0 Bft) W-NW 292 6,2 C 8,0 C 0,0 km/h (0 Bft)
13.07.2013 01:30 8,8 C 84 % 1022,5 hPa 0,0 l/m 0,0 km/h (0 Bft) N-NW 337 6,2 C 8,0 C 0,0 km/h (0 Bft)
13.07.2013 01:35 8,7 C 84 % 1022,5 hPa 0,0 l/m 0,0 km/h (0 Bft) N 360 6,2 C 7,9 C 0,0 km/h (0 Bft)
13.07.2013 01:40 8,7 C 85 % 1022,6 hPa 0,0 l/m 0,0 km/h (0 Bft) N 360 6,3 C 7,9 C 0,0 km/h (0 Bft)
13.07.2013 01:45 8,5 C 85 % 1022,6 hPa 0,0 l/m 0,0 km/h (0 Bft) N 360 6,1 C 7,8 C 0,0 km/h (0 Bft)
13.07.2013 01:50 8,4 C 85 % 1022,6 hPa 0,0 l/m 0,0 km/h (0 Bft) N 360 6,0 C 7,6 C 0,0 km/h (0 Bft)
13.07.2013 01:55 8,3 C 85 % 1022,6 hPa 0,0 l/m 0,0 km/h (0 Bft) N 360 5,9 C 7,6 C 0,0 km/h (0 Bft)
13.07.2013 02:00 8,2 C 85 % 1022,4 hPa 0,0 l/m 0,0 km/h (0 Bft) N 360 5,8 C 7,6 C 0,0 km/h (0 Bft)
13.07.2013 02:05 8,2 C 86 % 1022,4 hPa 0,0 l/m 0,0 km/h (0 Bft) N-NO 22 6,0 C 7,4 C 0,0 km/h (0 Bft)
13.07.2013 02:10 8,2 C 86 % 1022,4 hPa 0,0 l/m 0,0 km/h (0 Bft) N-NO 22 6,0 C 7,4 C 0,0 km/h (0 Bft)
13.07.2013 02:15 8,2 C 86 % 1022,4 hPa 0,0 l/m 0,0 km/h (0 Bft) N 360 6,0 C 7,4 C 0,0 km/h (0 Bft)
13.07.2013 02:20 8,3 C 87 % 1022,4 hPa 0,0 l/m 0,2 km/h (0 Bft) O-NO 67 6,3 C 7,4 C 3,1 km/h (1 Bft)
13.07.2013 02:25 8,4 C 87 % 1022,4 hPa 0,0 l/m 0,5 km/h (0 Bft) O-SO 112 6,4 C 7,6 C 0,0 km/h (0 Bft)
13.07.2013 02:30 8,3 C 87 % 1022,4 hPa 0,0 l/m 0,5 km/h (0 Bft) W-SW 247 6,3 C 7,6 C 0,0 km/h (0 Bft)
13.07.2013 02:35 8,2 C 87 % 1022,4 hPa 0,0 l/m 0,0 km/h (0 Bft) W 270 6,2 C 7,5 C 0,0 km/h (0 Bft)
13.07.2013 02:40 8,3 C 87 % 1022,4 hPa 0,0 l/m 0,0 km/h (0 Bft) O-SO 112 6,3 C 7,4 C 0,0 km/h (0 Bft)
13.07.2013 02:45 8,2 C 88 % 1022,4 hPa 0,0 l/m 0,0 km/h (0 Bft) SO 135 6,3 C 7,3 C 0,0 km/h (0 Bft)
13.07.2013 02:50 8,0 C 87 % 1022,4 hPa 0,0 l/m 0,2 km/h (0 Bft) NO 45 6,0 C 7,4 C 0,0 km/h (0 Bft)
13.07.2013 02:55 7,8 C 88 % 1022,4 hPa 0,0 l/m 0,2 km/h (0 Bft) W-NW 292 5,9 C 7,4 C 0,0 km/h (0 Bft)
13.07.2013 03:00 7,8 C 88 % 1022,2 hPa 0,0 l/m 0,0 km/h (0 Bft) S-SO 157 5,9 C 7,4 C 0,0 km/h (0 Bft)
13.07.2013 03:05 7,8 C 88 % 1022,2 hPa 0,0 l/m 0,0 km/h (0 Bft) NO 45 5,9 C 7,1 C 0,0 km/h (0 Bft)
13.07.2013 03:10 7,8 C 88 % 1022,2 hPa 0,0 l/m 0,0 km/h (0 Bft) N 360 5,9 C 7,1 C 0,0 km/h (0 Bft)
13.07.2013 03:15 7,7 C 88 % 1022,2 hPa 0,0 l/m 0,0 km/h (0 Bft) NO 45 5,8 C 7,1 C 0,0 km/h (0 Bft)
13.07.2013 03:20 7,7 C 88 % 1022,2 hPa 0,0 l/m 0,0 km/h (0 Bft) N-NW 337 5,8 C 7,0 C 0,0 km/h (0 Bft)
13.07.2013 03:25 7,8 C 88 % 1022,2 hPa 0,0 l/m 0,0 km/h (0 Bft) N 360 5,9 C 7,0 C 0,0 km/h (0 Bft)
13.07.2013 03:30 7,7 C 88 % 1022,2 hPa 0,0 l/m 0,0 km/h (0 Bft) N 360 5,8 C 7,0 C 0,0 km/h (0 Bft)
13.07.2013 03:35 7,6 C 88 % 1022,2 hPa 0,0 l/m 0,0 km/h (0 Bft) N-NW 337 5,7 C 7,1 C 0,0 km/h (0 Bft)
13.07.2013 03:40 7,7 C 88 % 1022,2 hPa 0,0 l/m 0,0 km/h (0 Bft) N 360 5,8 C 7,1 C 0,0 km/h (0 Bft)
13.07.2013 03:45 7,8 C 89 % 1022,2 hPa 0,0 l/m 0,0 km/h (0 Bft) NO 45 6,1 C 7,1 C 0,0 km/h (0 Bft)
13.07.2013 03:50 7,7 C 89 % 1022,2 hPa 0,0 l/m 0,0 km/h (0 Bft) N 360 6,0 C 7,2 C 0,0 km/h (0 Bft)
13.07.2013 03:55 7,7 C 89 % 1022,2 hPa 0,0 l/m 0,0 km/h (0 Bft) NO 45 6,0 C 7,2 C 0,0 km/h (0 Bft)
13.07.2013 04:00 7,7 C 89 % 1022,4 hPa 0,0 l/m 0,0 km/h (0 Bft) N-NO 22 6,0 C 7,2 C 0,0 km/h (0 Bft)
13.07.2013 04:05 7,9 C 89 % 1022,4 hPa 0,0 l/m 0,0 km/h (0 Bft) N-NO 22 6,2 C 7,1 C 0,0 km/h (0 Bft)
13.07.2013 04:10 8,0 C 89 % 1022,4 hPa 0,0 l/m 0,0 km/h (0 Bft) N-NO 22 6,3 C 7,2 C 0,0 km/h (0 Bft)
13.07.2013 04:15 8,2 C 89 % 1022,4 hPa 0,0 l/m 0,0 km/h (0 Bft) O-SO 112 6,5 C 7,4 C 0,0 km/h (0 Bft)
13.07.2013 04:20 7,9 C 89 % 1022,2 hPa 0,0 l/m 0,0 km/h (0 Bft) O 90 6,2 C 7,3 C 0,0 km/h (0 Bft)
13.07.2013 04:25 7,7 C 89 % 1022,2 hPa 0,0 l/m 0,0 km/h (0 Bft) O 90 6,0 C 7,0 C 0,0 km/h (0 Bft)
13.07.2013 04:30 7,7 C 89 % 1022,2 hPa 0,0 l/m 0,0 km/h (0 Bft) O-SO 112 6,0 C 7,0 C 0,0 km/h (0 Bft)
13.07.2013 04:35 7,6 C 89 % 1022,2 hPa 0,0 l/m 0,0 km/h (0 Bft) S 180 5,9 C 7,1 C 0,0 km/h (0 Bft)
13.07.2013 04:40 7,4 C 89 % 1022,2 hPa 0,0 l/m 0,0 km/h (0 Bft) S 180 5,7 C 7,0 C 0,0 km/h (0 Bft)
13.07.2013 04:45 7,3 C 89 % 1022,2 hPa 0,0 l/m 0,0 km/h (0 Bft) O 90 5,6 C 6,8 C 0,0 km/h (0 Bft)
13.07.2013 04:50 7,5 C 89 % 1022,2 hPa 0,0 l/m 0,2 km/h (0 Bft) NO 45 5,8 C 6,9 C 0,0 km/h (0 Bft)
13.07.2013 04:55 7,6 C 90 % 1022,2 hPa 0,0 l/m 0,3 km/h (0 Bft) N 360 6,1 C 7,0 C 0,0 km/h (0 Bft)
13.07.2013 05:00 7,5 C 90 % 1022,3 hPa 0,0 l/m 0,0 km/h (0 Bft) N-NO 22 6,0 C 7,0 C 0,0 km/h (0 Bft)
13.07.2013 05:05 7,2 C 90 % 1022,3 hPa 0,0 l/m 0,0 km/h (0 Bft) NO 45 5,7 C 6,7 C 0,0 km/h (0 Bft)
13.07.2013 05:10 7,0 C 89 % 1022,3 hPa 0,0 l/m 0,0 km/h (0 Bft) W-SW 247 5,3 C 6,7 C 0,0 km/h (0 Bft)
13.07.2013 05:15 6,9 C 90 % 1022,3 hPa 0,0 l/m 0,0 km/h (0 Bft) O 90 5,4 C 6,5 C 0,0 km/h (0 Bft)
13.07.2013 05:20 6,8 C 90 % 1022,0 hPa 0,0 l/m 0,0 km/h (0 Bft) O 90 5,3 C 6,4 C 0,0 km/h (0 Bft)
13.07.2013 05:25 7,0 C 90 % 1022,0 hPa 0,0 l/m 0,2 km/h (0 Bft) N 360 5,5 C 6,4 C 2,1 km/h (1 Bft)
13.07.2013 05:30 7,1 C 90 % 1022,0 hPa 0,0 l/m 0,3 km/h (0 Bft) N 360 5,6 C 6,5 C 1,8 km/h (1 Bft)
13.07.2013 05:35 7,3 C 91 % 1022,0 hPa 0,0 l/m 0,5 km/h (0 Bft) N-NO 22 5,9 C 6,7 C 1,8 km/h (1 Bft)
13.07.2013 05:40 7,4 C 91 % 1022,1 hPa 0,0 l/m 0,3 km/h (0 Bft) NO 45 6,0 C 6,7 C 0,0 km/h (0 Bft)
13.07.2013 05:45 7,3 C 91 % 1022,1 hPa 0,0 l/m 0,2 km/h (0 Bft) NO 45 5,9 C 6,6 C 0,0 km/h (0 Bft)
13.07.2013 05:50 7,3 C 91 % 1022,1 hPa 0,0 l/m 0,0 km/h (0 Bft) NO 45 5,9 C 6,6 C 0,0 km/h (0 Bft)
13.07.2013 05:55 7,2 C 91 % 1022,1 hPa 0,0 l/m 0,0 km/h (0 Bft) N 360 5,8 C 6,6 C 0,0 km/h (0 Bft)
13.07.2013 06:00 7,2 C 91 % 1021,9 hPa 0,0 l/m 0,0 km/h (0 Bft) N 360 5,8 C 6,9 C 0,0 km/h (0 Bft)
13.07.2013 06:05 7,3 C 90 % 1021,9 hPa 0,0 l/m 0,0 km/h (0 Bft) NO 45 5,8 C 7,6 C 0,0 km/h (0 Bft)
13.07.2013 06:10 7,5 C 90 % 1021,9 hPa 0,0 l/m 0,0 km/h (0 Bft) N 360 6,0 C 7,6 C 0,0 km/h (0 Bft)
13.07.2013 06:15 9,1 C 90 % 1021,9 hPa 0,0 l/m 0,0 km/h (0 Bft) N 360 7,5 C 8,2 C 0,0 km/h (0 Bft)
13.07.2013 06:20 9,8 C 90 % 1021,9 hPa 0,0 l/m 0,0 km/h (0 Bft) N-NW 337 8,2 C 8,7 C 0,0 km/h (0 Bft)
13.07.2013 06:25 10,8 C 89 % 1021,9 hPa 0,0 l/m 0,0 km/h (0 Bft) NO 45 9,1 C 9,2 C 0,0 km/h (0 Bft)
13.07.2013 06:30 10,9 C 88 % 1021,9 hPa 0,0 l/m 0,0 km/h (0 Bft) N-NW 337 9,0 C 9,7 C 0,0 km/h (0 Bft)
13.07.2013 06:35 10,3 C 85 % 1021,9 hPa 0,0 l/m 0,0 km/h (0 Bft) N 360 7,9 C 10,2 C 0,0 km/h (0 Bft)
13.07.2013 06:40 9,7 C 85 % 1022,1 hPa 0,0 l/m 0,0 km/h (0 Bft) NO 45 7,3 C 9,7 C 0,0 km/h (0 Bft)
13.07.2013 06:45 12,0 C 85 % 1022,1 hPa 0,0 l/m 0,2 km/h (0 Bft) NO 45 9,6 C 10,0 C 0,0 km/h (0 Bft)
13.07.2013 06:50 12,9 C 84 % 1022,1 hPa 0,0 l/m 0,2 km/h (0 Bft) N 360 10,3 C 11,1 C 0,0 km/h (0 Bft)
13.07.2013 06:55 13,7 C 80 % 1022,1 hPa 0,0 l/m 0,0 km/h (0 Bft) N-NW 337 10,3 C 12,7 C 0,0 km/h (0 Bft)
13.07.2013 07:00 13,8 C 77 % 1021,9 hPa 0,0 l/m 0,0 km/h (0 Bft) N 360 9,8 C 13,3 C 0,0 km/h (0 Bft)
13.07.2013 07:05 14,2 C 73 % 1021,9 hPa 0,0 l/m 0,0 km/h (0 Bft) N-NW 337 9,4 C 14,1 C 0,0 km/h (0 Bft)
13.07.2013 07:10 14,7 C 72 % 1021,9 hPa 0,0 l/m 0,0 km/h (0 Bft) N-NO 22 9,7 C 14,3 C 0,0 km/h (0 Bft)
13.07.2013 07:15 15,7 C 72 % 1021,9 hPa 0,0 l/m 0,0 km/h (0 Bft) O-SO 112 10,7 C 15,1 C 0,0 km/h (0 Bft)
13.07.2013 07:20 15,6 C 66 % 1021,9 hPa 0,0 l/m 0,0 km/h (0 Bft) NO 45 9,3 C 15,8 C 0,0 km/h (0 Bft)
13.07.2013 07:25 15,8 C 66 % 1021,9 hPa 0,0 l/m 0,0 km/h (0 Bft) NO 45 9,5 C 16,0 C 0,0 km/h (0 Bft)
13.07.2013 07:30 16,7 C 66 % 1021,9 hPa 0,0 l/m 0,0 km/h (0 Bft) N-NW 337 10,3 C 16,6 C 0,0 km/h (0 Bft)
13.07.2013 07:35 17,5 C 62 % 1021,9 hPa 0,0 l/m 0,0 km/h (0 Bft) N-NO 22 10,1 C 17,6 C 0,0 km/h (0 Bft)
13.07.2013 07:40 17,4 C 62 % 1021,9 hPa 0,0 l/m 0,2 km/h (0 Bft) NO 45 10,0 C 17,7 C 0,0 km/h (0 Bft)
13.07.2013 07:45 18,9 C 63 % 1021,9 hPa 0,0 l/m 0,2 km/h (0 Bft) NO 45 11,7 C 18,5 C 0,0 km/h (0 Bft)
13.07.2013 07:50 19,6 C 60 % 1021,9 hPa 0,0 l/m 0,0 km/h (0 Bft) NW 315 11,6 C 19,0 C 0,0 km/h (0 Bft)
13.07.2013 07:55 20,0 C 59 % 1021,9 hPa 0,0 l/m 0,0 km/h (0 Bft) N-NW 337 11,7 C 20,1 C 0,0 km/h (0 Bft)
13.07.2013 08:00 20,1 C 59 % 1022,2 hPa 0,0 l/m 0,0 km/h (0 Bft) W-NW 292 11,8 C 20,7 C 0,0 km/h (0 Bft)
13.07.2013 08:05 20,7 C 58 % 1022,2 hPa 0,0 l/m 0,2 km/h (0 Bft) W-NW 292 12,1 C 21,0 C 0,0 km/h (0 Bft)
13.07.2013 08:10 20,7 C 57 % 1022,2 hPa 0,0 l/m 0,6 km/h (0 Bft) W 270 11,9 C 21,0 C 3,2 km/h (1 Bft)
13.07.2013 08:15 21,3 C 56 % 1022,2 hPa 0,0 l/m 1,1 km/h (1 Bft) W-SW 247 12,2 C 20,8 C 0,0 km/h (0 Bft)
13.07.2013 08:20 22,3 C 56 % 1022,2 hPa 0,0 l/m 0,8 km/h (0 Bft) W 270 13,1 C 21,3 C 0,0 km/h (0 Bft)
13.07.2013 08:25 22,1 C 55 % 1022,2 hPa 0,0 l/m 0,2 km/h (0 Bft) W-SW 247 12,6 C 21,9 C 0,0 km/h (0 Bft)
13.07.2013 08:30 22,0 C 54 % 1022,2 hPa 0,0 l/m 0,2 km/h (0 Bft) S 180 12,3 C 22,6 C 0,0 km/h (0 Bft)
13.07.2013 08:35 21,6 C 56 % 1022,2 hPa 0,0 l/m 0,2 km/h (0 Bft) O 90 12,4 C 23,1 C 1,9 km/h (1 Bft)
13.07.2013 08:40 22,3 C 56 % 1022,6 hPa 0,0 l/m 0,2 km/h (0 Bft) W 270 13,1 C 23,2 C 0,0 km/h (0 Bft)
13.07.2013 08:45 23,6 C 53 % 1022,6 hPa 0,0 l/m 0,3 km/h (0 Bft) W-SW 247 13,4 C 23,4 C 0,0 km/h (0 Bft)
13.07.2013 08:50 23,9 C 49 % 1022,6 hPa 0,0 l/m 0,2 km/h (0 Bft) N-NW 337 12,5 C 23,6 C 0,0 km/h (0 Bft)
13.07.2013 08:55 22,2 C 48 % 1022,6 hPa 0,0 l/m 0,5 km/h (0 Bft) NW 315 10,7 C 24,1 C 4,3 km/h (1 Bft)
13.07.2013 09:00 23,0 C 47 % 1022,6 hPa 0,0 l/m 1,4 km/h (1 Bft) W-NW 292 11,1 C 23,7 C 5,0 km/h (1 Bft)
13.07.2013 09:05 23,3 C 47 % 1022,6 hPa 0,0 l/m 2,6 km/h (1 Bft) W 270 11,3 C 23,2 C 3,2 km/h (1 Bft)
13.07.2013 09:10 23,4 C 46 % 1022,6 hPa 0,0 l/m 2,9 km/h (1 Bft) W-NW 292 11,1 C 23,0 C 3,2 km/h (1 Bft)
13.07.2013 09:15 22,5 C 46 % 1022,6 hPa 0,0 l/m 2,3 km/h (1 Bft) W-NW 292 10,3 C 23,4 C 2,9 km/h (1 Bft)
13.07.2013 09:20 23,3 C 44 % 1023,1 hPa 0,0 l/m 1,9 km/h (1 Bft) N-NW 337 10,4 C 23,5 C 1,6 km/h (1 Bft)
13.07.2013 09:25 23,7 C 46 % 1023,1 hPa 0,0 l/m 1,9 km/h (1 Bft) W-NW 292 11,4 C 24,1 C 3,9 km/h (1 Bft)
13.07.2013 09:30 23,6 C 43 % 1023,1 hPa 0,0 l/m 2,3 km/h (1 Bft) W-NW 292 10,3 C 23,9 C 2,3 km/h (1 Bft)
13.07.2013 09:35 23,5 C 41 % 1023,1 hPa 0,0 l/m 3,1 km/h (1 Bft) NW 315 9,5 C 24,2 C 5,3 km/h (1 Bft)
13.07.2013 09:40 23,7 C 40 % 1023,4 hPa 0,0 l/m 3,2 km/h (1 Bft) N-NW 337 9,3 C 23,9 C 6,6 km/h (2 Bft)
13.07.2013 09:45 23,7 C 42 % 1023,4 hPa 0,0 l/m 3,4 km/h (1 Bft) W 270 10,0 C 23,9 C 5,1 km/h (1 Bft)
13.07.2013 09:50 24,0 C 42 % 1023,4 hPa 0,0 l/m 2,7 km/h (1 Bft) W-NW 292 10,3 C 24,1 C 0,0 km/h (0 Bft)
13.07.2013 09:55 24,2 C 40 % 1023,4 hPa 0,0 l/m 2,7 km/h (1 Bft) W 270 9,7 C 24,5 C 5,0 km/h (1 Bft)
13.07.2013 10:00 23,7 C 42 % 1023,6 hPa 0,0 l/m 2,9 km/h (1 Bft) W 270 10,0 C 24,2 C 2,1 km/h (1 Bft)
13.07.2013 10:05 23,6 C 41 % 1023,6 hPa 0,0 l/m 4,2 km/h (1 Bft) W-NW 292 9,6 C 23,9 C 8,4 km/h (2 Bft)
13.07.2013 10:10 23,7 C 40 % 1023,6 hPa 0,0 l/m 3,5 km/h (1 Bft) N 360 9,3 C 23,9 C 1,8 km/h (1 Bft)
13.07.2013 10:15 23,9 C 39 % 1023,6 hPa 0,0 l/m 2,6 km/h (1 Bft) W 270 9,1 C 24,3 C 0,0 km/h (0 Bft)
13.07.2013 10:20 23,7 C 38 % 1023,7 hPa 0,0 l/m 3,1 km/h (1 Bft) O-SO 112 8,5 C 24,5 C 2,7 km/h (1 Bft)
13.07.2013 10:25 23,2 C 39 % 1023,7 hPa 0,0 l/m 3,4 km/h (1 Bft) N 360 8,5 C 24,7 C 5,3 km/h (1 Bft)
13.07.2013 10:30 23,3 C 38 % 1023,7 hPa 0,0 l/m 3,2 km/h (1 Bft) N 360 8,2 C 24,5 C 3,4 km/h (1 Bft)
13.07.2013 10:35 23,4 C 38 % 1023,7 hPa 0,0 l/m 3,5 km/h (1 Bft) N-NW 337 8,3 C 24,5 C 5,0 km/h (1 Bft)
13.07.2013 10:40 23,4 C 38 % 1023,9 hPa 0,0 l/m 3,4 km/h (1 Bft) N 360 8,3 C 24,6 C 5,3 km/h (1 Bft)
13.07.2013 10:45 23,4 C 38 % 1023,9 hPa 0,0 l/m 4,0 km/h (1 Bft) NO 45 8,3 C 24,3 C 2,4 km/h (1 Bft)
13.07.2013 10:50 23,9 C 36 % 1023,9 hPa 0,0 l/m 3,7 km/h (1 Bft) NO 45 7,9 C 25,0 C 5,0 km/h (1 Bft)
13.07.2013 10:55 22,9 C 38 % 1023,9 hPa 0,0 l/m 4,0 km/h (1 Bft) O-NO 67 7,8 C 24,5 C 10,9 km/h (2 Bft)
13.07.2013 11:00 23,3 C 39 % 1023,8 hPa 0,0 l/m 4,8 km/h (1 Bft) N 360 8,6 C 24,3 C 7,9 km/h (2 Bft)
13.07.2013 11:05 23,4 C 38 % 1023,8 hPa 0,0 l/m 4,5 km/h (1 Bft) W-NW 292 8,3 C 24,3 C 4,3 km/h (1 Bft)
13.07.2013 11:10 23,8 C 36 % 1023,8 hPa 0,0 l/m 5,1 km/h (1 Bft) N 360 7,8 C 24,1 C 5,5 km/h (1 Bft)
13.07.2013 11:15 22,8 C 37 % 1023,8 hPa 0,0 l/m 4,8 km/h (1 Bft) W-NW 292 7,3 C 24,1 C 3,5 km/h (1 Bft)
13.07.2013 11:20 23,8 C 37 % 1023,8 hPa 0,0 l/m 3,5 km/h (1 Bft) NW 315 8,2 C 24,5 C 6,3 km/h (2 Bft)
13.07.2013 11:25 24,3 C 35 % 1023,8 hPa 0,0 l/m 2,9 km/h (1 Bft) N 360 7,8 C 24,7 C 2,9 km/h (1 Bft)
13.07.2013 11:30 24,3 C 36 % 1023,8 hPa 0,0 l/m 2,7 km/h (1 Bft) N 360 8,3 C 25,2 C 2,9 km/h (1 Bft)
13.07.2013 11:35 24,0 C 36 % 1023,8 hPa 0,0 l/m 3,1 km/h (1 Bft) N 360 8,0 C 25,2 C 5,6 km/h (1 Bft)
13.07.2013 11:40 23,9 C 35 % 1023,8 hPa 0,0 l/m 3,7 km/h (1 Bft) N-NW 337 7,5 C 24,9 C 3,7 km/h (1 Bft)
13.07.2013 11:45 23,8 C 35 % 1023,8 hPa 0,0 l/m 3,9 km/h (1 Bft) N 360 7,4 C 24,9 C 3,4 km/h (1 Bft)
13.07.2013 11:50 24,7 C 35 % 1023,8 hPa 0,0 l/m 3,2 km/h (1 Bft) S 180 8,2 C 25,0 C 5,1 km/h (1 Bft)
13.07.2013 11:55 24,6 C 38 % 1023,8 hPa 0,0 l/m 3,9 km/h (1 Bft) NW 315 9,3 C 25,1 C 4,7 km/h (1 Bft)
13.07.2013 12:00 24,5 C 37 % 1023,8 hPa 0,0 l/m 4,5 km/h (1 Bft) W-SW 247 8,8 C 25,0 C 6,0 km/h (2 Bft)
13.07.2013 12:05 25,0 C 36 % 1023,8 hPa 0,0 l/m 3,9 km/h (1 Bft) NW 315 8,9 C 25,1 C 6,4 km/h (2 Bft)
13.07.2013 12:10 24,4 C 36 % 1023,8 hPa 0,0 l/m 4,5 km/h (1 Bft) W-NW 292 8,4 C 24,8 C 3,7 km/h (1 Bft)
13.07.2013 12:15 24,0 C 35 % 1023,8 hPa 0,0 l/m 5,1 km/h (1 Bft) N-NO 22 7,6 C 24,7 C 13,7 km/h (3 Bft)
13.07.2013 12:20 23,5 C 38 % 1023,9 hPa 0,0 l/m 4,5 km/h (1 Bft) N 360 8,4 C 24,8 C 3,7 km/h (1 Bft)
13.07.2013 12:25 23,6 C 38 % 1023,9 hPa 0,0 l/m 3,5 km/h (1 Bft) N-NW 337 8,4 C 25,0 C 1,9 km/h (1 Bft)
13.07.2013 12:30 24,3 C 36 % 1023,9 hPa 0,0 l/m 3,5 km/h (1 Bft) W-NW 292 8,3 C 25,4 C 9,5 km/h (2 Bft)
13.07.2013 12:35 24,3 C 36 % 1023,9 hPa 0,0 l/m 4,5 km/h (1 Bft) NW 315 8,3 C 24,9 C 7,2 km/h (2 Bft)
13.07.2013 12:40 24,1 C 37 % 1023,9 hPa 0,0 l/m 4,8 km/h (1 Bft) W-NW 292 8,5 C 24,8 C 5,1 km/h (1 Bft)
13.07.2013 12:45 24,5 C 37 % 1023,9 hPa 0,0 l/m 5,0 km/h (1 Bft) S-SW 202 8,8 C 24,7 C 7,9 km/h (2 Bft)
13.07.2013 12:50 23,4 C 36 % 1023,9 hPa 0,0 l/m 5,0 km/h (1 Bft) N-NW 337 7,5 C 24,8 C 6,8 km/h (2 Bft)
13.07.2013 12:55 24,5 C 39 % 1023,9 hPa 0,0 l/m 4,0 km/h (1 Bft) S 180 9,6 C 25,4 C 3,1 km/h (1 Bft)
13.07.2013 13:00 24,9 C 38 % 1024,2 hPa 0,0 l/m 3,9 km/h (1 Bft) S 180 9,6 C 25,5 C 3,5 km/h (1 Bft)
13.07.2013 13:05 22,7 C 39 % 1024,2 hPa 0,0 l/m 5,0 km/h (1 Bft) S 180 8,0 C 25,0 C 9,8 km/h (2 Bft)
13.07.2013 13:10 23,1 C 39 % 1024,2 hPa 0,0 l/m 5,1 km/h (1 Bft) O-SO 112 8,4 C 24,1 C 5,1 km/h (1 Bft)
13.07.2013 13:15 23,6 C 38 % 1024,2 hPa 0,0 l/m 5,5 km/h (1 Bft) N-NW 337 8,4 C 23,9 C 9,0 km/h (2 Bft)
13.07.2013 13:20 24,0 C 38 % 1023,9 hPa 0,0 l/m 5,0 km/h (1 Bft) S-SW 202 8,8 C 24,2 C 5,0 km/h (1 Bft)
13.07.2013 13:25 24,5 C 36 % 1023,9 hPa 0,0 l/m 4,2 km/h (1 Bft) W-SW 247 8,4 C 25,0 C 9,3 km/h (2 Bft)
13.07.2013 13:30 24,1 C 34 % 1023,9 hPa 0,0 l/m 3,4 km/h (1 Bft) S-SO 157 7,2 C 25,4 C 1,6 km/h (1 Bft)
13.07.2013 13:35 24,6 C 34 % 1023,9 hPa 0,0 l/m 4,3 km/h (1 Bft) S-SW 202 7,7 C 25,6 C 5,5 km/h (1 Bft)
13.07.2013 13:40 24,3 C 34 % 1023,8 hPa 0,0 l/m 4,2 km/h (1 Bft) NW 315 7,4 C 25,8 C 3,7 km/h (1 Bft)
13.07.2013 13:45 25,0 C 36 % 1023,8 hPa 0,0 l/m 4,7 km/h (1 Bft) S 180 8,9 C 25,6 C 5,3 km/h (1 Bft)
13.07.2013 13:50 24,8 C 33 % 1023,8 hPa 0,0 l/m 5,6 km/h (1 Bft) SO 135 7,4 C 25,4 C 3,9 km/h (1 Bft)
13.07.2013 13:55 25,2 C 35 % 1023,8 hPa 0,0 l/m 4,8 km/h (1 Bft) S-SW 202 8,6 C 25,6 C 5,5 km/h (1 Bft)
13.07.2013 14:00 25,4 C 35 % 1023,8 hPa 0,0 l/m 4,3 km/h (1 Bft) SO 135 8,8 C 25,7 C 5,6 km/h (1 Bft)
13.07.2013 14:05 25,4 C 35 % 1023,8 hPa 0,0 l/m 4,5 km/h (1 Bft) W 270 8,8 C 25,6 C 0,0 km/h (0 Bft)
13.07.2013 14:10 25,2 C 35 % 1023,8 hPa 0,0 l/m 3,4 km/h (1 Bft) S-SW 202 8,6 C 26,1 C 3,1 km/h (1 Bft)
13.07.2013 14:15 25,2 C 34 % 1023,8 hPa 0,0 l/m 3,9 km/h (1 Bft) W-NW 292 8,2 C 26,1 C 8,9 km/h (2 Bft)
13.07.2013 14:20 24,8 C 35 % 1024,1 hPa 0,0 l/m 5,1 km/h (1 Bft) W-NW 292 8,3 C 25,8 C 7,4 km/h (2 Bft)
13.07.2013 14:25 25,6 C 35 % 1024,1 hPa 0,0 l/m 5,3 km/h (1 Bft) W 270 9,0 C 25,7 C 6,6 km/h (2 Bft)
13.07.2013 14:30 25,4 C 35 % 1024,1 hPa 0,0 l/m 5,3 km/h (1 Bft) W 270 8,8 C 25,8 C 11,6 km/h (2 Bft)
13.07.2013 14:35 24,7 C 35 % 1024,1 hPa 0,0 l/m 5,0 km/h (1 Bft) W 270 8,2 C 25,8 C 5,8 km/h (2 Bft)
13.07.2013 14:40 25,3 C 34 % 1023,9 hPa 0,0 l/m 5,1 km/h (1 Bft) W 270 8,3 C 25,9 C 4,3 km/h (1 Bft)
13.07.2013 14:45 24,0 C 33 % 1023,9 hPa 0,0 l/m 4,3 km/h (1 Bft) N-NW 337 6,7 C 26,2 C 4,0 km/h (1 Bft)
13.07.2013 14:50 24,8 C 34 % 1023,9 hPa 0,0 l/m 3,1 km/h (1 Bft) W 270 7,9 C 26,6 C 3,4 km/h (1 Bft)
13.07.2013 14:55 24,5 C 35 % 1023,9 hPa 0,0 l/m 3,4 km/h (1 Bft) W 270 8,0 C 26,8 C 6,1 km/h (2 Bft)
13.07.2013 15:00 25,2 C 35 % 1023,9 hPa 0,0 l/m 4,0 km/h (1 Bft) W-SW 247 8,6 C 27,1 C 11,1 km/h (2 Bft)
13.07.2013 15:05 25,2 C 34 % 1023,9 hPa 0,0 l/m 4,2 km/h (1 Bft) W-SW 247 8,2 C 27,0 C 6,3 km/h (2 Bft)
13.07.2013 15:10 24,8 C 35 % 1023,9 hPa 0,0 l/m 5,0 km/h (1 Bft) W-NW 292 8,3 C 26,7 C 3,7 km/h (1 Bft)
13.07.2013 15:15 24,8 C 35 % 1023,9 hPa 0,0 l/m 4,7 km/h (1 Bft) S 180 8,3 C 26,6 C 2,7 km/h (1 Bft)
13.07.2013 15:20 25,2 C 34 % 1024,1 hPa 0,0 l/m 4,7 km/h (1 Bft) W-NW 292 8,2 C 26,6 C 6,1 km/h (2 Bft)
13.07.2013 15:25 25,0 C 34 % 1024,1 hPa 0,0 l/m 3,4 km/h (1 Bft) W-NW 292 8,0 C 27,1 C 5,3 km/h (1 Bft)
13.07.2013 15:30 24,6 C 36 % 1024,1 hPa 0,0 l/m 3,9 km/h (1 Bft) N 360 8,5 C 27,3 C 5,0 km/h (1 Bft)
13.07.2013 15:35 24,8 C 35 % 1024,1 hPa 0,0 l/m 4,2 km/h (1 Bft) W-SW 247 8,3 C 27,3 C 1,8 km/h (1 Bft)
13.07.2013 15:40 24,7 C 36 % 1024,0 hPa 0,0 l/m 2,9 km/h (1 Bft) W-NW 292 8,6 C 27,8 C 2,4 km/h (1 Bft)
13.07.2013 15:45 24,3 C 36 % 1024,0 hPa 0,0 l/m 3,9 km/h (1 Bft) W 270 8,3 C 27,7 C 4,8 km/h (1 Bft)
13.07.2013 15:50 24,0 C 37 % 1024,0 hPa 0,0 l/m 4,7 km/h (1 Bft) N 360 8,4 C 27,3 C 4,7 km/h (1 Bft)
13.07.2013 15:55 24,2 C 36 % 1024,0 hPa 0,0 l/m 4,0 km/h (1 Bft) S-SW 202 8,2 C 27,2 C 2,9 km/h (1 Bft)
13.07.2013 16:00 24,9 C 37 % 1024,1 hPa 0,0 l/m 4,3 km/h (1 Bft) W-SW 247 9,2 C 27,5 C 5,0 km/h (1 Bft)
13.07.2013 16:05 24,3 C 36 % 1024,1 hPa 0,0 l/m 4,2 km/h (1 Bft) S 180 8,3 C 27,7 C 3,9 km/h (1 Bft)
13.07.2013 16:10 24,5 C 36 % 1024,1 hPa 0,0 l/m 4,7 km/h (1 Bft) W-SW 247 8,4 C 27,3 C 5,3 km/h (1 Bft)
13.07.2013 16:15 24,8 C 37 % 1024,1 hPa 0,0 l/m 5,1 km/h (1 Bft) W-NW 292 9,1 C 27,3 C 7,2 km/h (2 Bft)
13.07.2013 16:20 24,8 C 36 % 1024,0 hPa 0,0 l/m 5,3 km/h (1 Bft) W 270 8,7 C 27,1 C 7,6 km/h (2 Bft)
13.07.2013 16:25 24,8 C 35 % 1024,0 hPa 0,0 l/m 5,3 km/h (1 Bft) N 360 8,3 C 27,0 C 3,9 km/h (1 Bft)
13.07.2013 16:30 24,4 C 36 % 1024,0 hPa 0,0 l/m 4,7 km/h (1 Bft) W-SW 247 8,4 C 27,1 C 3,1 km/h (1 Bft)
13.07.2013 16:35 23,2 C 36 % 1024,0 hPa 0,0 l/m 5,8 km/h (2 Bft) W 270 7,3 C 26,1 C 5,0 km/h (1 Bft)
13.07.2013 16:40 23,5 C 37 % 1024,0 hPa 0,0 l/m 5,5 km/h (1 Bft) W 270 8,0 C 26,1 C 10,8 km/h (2 Bft)
13.07.2013 16:45 22,9 C 39 % 1024,0 hPa 0,0 l/m 4,2 km/h (1 Bft) NO 45 8,2 C 26,2 C 3,1 km/h (1 Bft)
13.07.2013 16:50 22,2 C 41 % 1024,0 hPa 0,0 l/m 4,0 km/h (1 Bft) W-SW 247 8,3 C 25,8 C 6,0 km/h (2 Bft)
13.07.2013 16:55 22,5 C 43 % 1024,0 hPa 0,0 l/m 5,1 km/h (1 Bft) W-NW 292 9,3 C 25,5 C 5,6 km/h (1 Bft)
13.07.2013 17:00 21,9 C 43 % 1023,9 hPa 0,0 l/m 6,1 km/h (2 Bft) SW 225 8,7 C 25,4 C 4,8 km/h (1 Bft)
13.07.2013 17:05 21,8 C 43 % 1023,9 hPa 0,0 l/m 4,5 km/h (1 Bft) N 360 8,7 C 25,4 C 3,7 km/h (1 Bft)
13.07.2013 17:10 21,7 C 45 % 1023,9 hPa 0,0 l/m 4,2 km/h (1 Bft) W-NW 292 9,2 C 24,8 C 7,4 km/h (2 Bft)
13.07.2013 17:15 21,7 C 46 % 1023,9 hPa 0,0 l/m 3,5 km/h (1 Bft) W-SW 247 9,6 C 24,3 C 4,5 km/h (1 Bft)
13.07.2013 17:20 21,9 C 45 % 1023,8 hPa 0,0 l/m 3,9 km/h (1 Bft) W-NW 292 9,4 C 24,3 C 4,8 km/h (1 Bft)
13.07.2013 17:25 21,4 C 45 % 1023,8 hPa 0,0 l/m 4,5 km/h (1 Bft) N-NW 337 9,0 C 24,6 C 8,9 km/h (2 Bft)
13.07.2013 17:30 21,6 C 46 % 1023,8 hPa 0,0 l/m 4,2 km/h (1 Bft) W 270 9,5 C 24,7 C 5,5 km/h (1 Bft)
13.07.2013 17:35 21,5 C 44 % 1023,8 hPa 0,0 l/m 5,5 km/h (1 Bft) W-NW 292 8,7 C 25,0 C 6,3 km/h (2 Bft)
13.07.2013 17:40 21,2 C 46 % 1023,8 hPa 0,0 l/m 5,5 km/h (1 Bft) W-NW 292 9,1 C 24,1 C 4,8 km/h (1 Bft)
13.07.2013 17:45 21,2 C 47 % 1023,8 hPa 0,0 l/m 4,7 km/h (1 Bft) NW 315 9,4 C 24,5 C 8,4 km/h (2 Bft)
13.07.2013 17:50 21,2 C 47 % 1023,8 hPa 0,0 l/m 4,5 km/h (1 Bft) N-NW 337 9,4 C 25,0 C 10,0 km/h (2 Bft)
13.07.2013 17:55 21,3 C 46 % 1023,8 hPa 0,0 l/m 4,7 km/h (1 Bft) W-NW 292 9,2 C 24,8 C 4,2 km/h (1 Bft)
13.07.2013 18:00 21,3 C 46 % 1023,8 hPa 0,0 l/m 4,7 km/h (1 Bft) N-NW 337 9,2 C 25,1 C 4,3 km/h (1 Bft)
13.07.2013 18:05 21,6 C 47 % 1023,8 hPa 0,0 l/m 3,9 km/h (1 Bft) NW 315 9,8 C 26,1 C 6,9 km/h (2 Bft)
13.07.2013 18:10 21,4 C 46 % 1023,8 hPa 0,0 l/m 3,7 km/h (1 Bft) NW 315 9,3 C 26,5 C 5,0 km/h (1 Bft)
13.07.2013 18:15 21,4 C 46 % 1023,8 hPa 0,0 l/m 4,2 km/h (1 Bft) N-NW 337 9,3 C 26,5 C 4,7 km/h (1 Bft)
13.07.2013 18:20 21,0 C 46 % 1023,6 hPa 0,0 l/m 5,0 km/h (1 Bft) N-NW 337 8,9 C 25,3 C 11,3 km/h (2 Bft)
13.07.2013 18:25 21,1 C 46 % 1023,6 hPa 0,0 l/m 5,0 km/h (1 Bft) NW 315 9,0 C 25,3 C 2,1 km/h (1 Bft)
13.07.2013 18:30 21,3 C 46 % 1023,6 hPa 0,0 l/m 4,7 km/h (1 Bft) N-NW 337 9,2 C 25,6 C 3,4 km/h (1 Bft)
13.07.2013 18:35 21,2 C 46 % 1023,6 hPa 0,0 l/m 4,0 km/h (1 Bft) NW 315 9,1 C 25,9 C 6,1 km/h (2 Bft)
13.07.2013 18:40 21,2 C 47 % 1023,4 hPa 0,0 l/m 3,9 km/h (1 Bft) N-NW 337 9,4 C 25,8 C 4,3 km/h (1 Bft)
13.07.2013 18:45 21,1 C 47 % 1023,4 hPa 0,0 l/m 3,4 km/h (1 Bft) NW 315 9,3 C 25,8 C 3,7 km/h (1 Bft)
13.07.2013 18:50 21,0 C 47 % 1023,4 hPa 0,0 l/m 3,2 km/h (1 Bft) W-SW 247 9,3 C 25,6 C 5,8 km/h (2 Bft)
13.07.2013 18:55 20,8 C 46 % 1023,4 hPa 0,0 l/m 3,9 km/h (1 Bft) W-NW 292 8,8 C 24,5 C 4,8 km/h (1 Bft)
13.07.2013 19:00 20,6 C 47 % 1023,0 hPa 0,0 l/m 3,7 km/h (1 Bft) S-SW 202 8,9 C 24,5 C 1,9 km/h (1 Bft)
13.07.2013 19:05 20,1 C 47 % 1023,0 hPa 0,0 l/m 3,2 km/h (1 Bft) NW 315 8,4 C 23,5 C 3,7 km/h (1 Bft)
13.07.2013 19:10 19,7 C 49 % 1023,0 hPa 0,0 l/m 2,7 km/h (1 Bft) W-NW 292 8,7 C 22,5 C 2,9 km/h (1 Bft)
13.07.2013 19:15 19,2 C 50 % 1023,0 hPa 0,0 l/m 1,8 km/h (1 Bft) O 90 8,5 C 21,5 C 2,9 km/h (1 Bft)
13.07.2013 19:20 18,9 C 51 % 1023,1 hPa 0,0 l/m 1,9 km/h (1 Bft) O 90 8,5 C 20,9 C 4,0 km/h (1 Bft)
13.07.2013 19:25 18,8 C 51 % 1023,1 hPa 0,0 l/m 2,3 km/h (1 Bft) NO 45 8,4 C 20,3 C 3,4 km/h (1 Bft)
13.07.2013 19:30 18,7 C 51 % 1023,1 hPa 0,0 l/m 2,1 km/h (1 Bft) W-SW 247 8,4 C 20,0 C 1,9 km/h (1 Bft)
13.07.2013 19:35 18,5 C 52 % 1023,1 hPa 0,0 l/m 1,6 km/h (1 Bft) NO 45 8,5 C 19,6 C 4,3 km/h (1 Bft)
13.07.2013 19:40 18,5 C 53 % 1023,3 hPa 0,0 l/m 1,9 km/h (1 Bft) O-SO 112 8,7 C 19,4 C 4,0 km/h (1 Bft)
13.07.2013 19:45 18,2 C 54 % 1023,3 hPa 0,0 l/m 2,9 km/h (1 Bft) O 90 8,7 C 19,2 C 2,7 km/h (1 Bft)
13.07.2013 19:50 18,2 C 54 % 1023,3 hPa 0,0 l/m 3,4 km/h (1 Bft) O 90 8,7 C 19,0 C 2,7 km/h (1 Bft)
13.07.2013 19:55 18,0 C 55 % 1023,3 hPa 0,0 l/m 3,1 km/h (1 Bft) O-NO 67 8,8 C 18,7 C 2,4 km/h (1 Bft)
13.07.2013 20:00 17,8 C 56 % 1023,4 hPa 0,0 l/m 2,9 km/h (1 Bft) O 90 8,9 C 18,6 C 3,4 km/h (1 Bft)
13.07.2013 20:02 17,8 C 56 % 1023,4 hPa 0,0 l/m 2,9 km/h (1 Bft) O 90 8,9 C 18,6 C 3,4 km/h (1 Bft)
13.07.2013 20:05 17,8 C 55 % 1023,4 hPa 0,0 l/m 2,9 km/h (1 Bft) O-NO 67 8,6 C 18,4 C 3,2 km/h (1 Bft)
13.07.2013 20:10 17,8 C 55 % 1023,4 hPa 0,0 l/m 2,9 km/h (1 Bft) O 90 8,6 C 18,4 C 2,1 km/h (1 Bft)
13.07.2013 20:15 18,1 C 54 % 1023,4 hPa 0,0 l/m 2,9 km/h (1 Bft) O 90 8,6 C 19,1 C 3,2 km/h (1 Bft)
13.07.2013 20:20 18,2 C 54 % 1023,5 hPa 0,0 l/m 2,6 km/h (1 Bft) O 90 8,7 C 19,4 C 3,7 km/h (1 Bft)
13.07.2013 20:25 17,9 C 55 % 1023,5 hPa 0,0 l/m 2,3 km/h (1 Bft) NO 45 8,7 C 18,8 C 4,2 km/h (1 Bft)
13.07.2013 20:30 17,7 C 55 % 1023,5 hPa 0,0 l/m 1,9 km/h (1 Bft) N 360 8,5 C 18,4 C 2,3 km/h (1 Bft)
13.07.2013 20:35 17,6 C 56 % 1023,5 hPa 0,0 l/m 1,1 km/h (1 Bft) O-SO 112 8,7 C 18,4 C 0,0 km/h (0 Bft)
13.07.2013 20:40 17,0 C 58 % 1023,4 hPa 0,0 l/m 0,5 km/h (0 Bft) O 90 8,7 C 18,5 C 0,0 km/h (0 Bft)
13.07.2013 20:45 17,0 C 58 % 1023,4 hPa 0,0 l/m 0,5 km/h (0 Bft) O-NO 67 8,7 C 18,2 C 1,8 km/h (1 Bft)
13.07.2013 20:50 16,6 C 59 % 1023,4 hPa 0,0 l/m 0,6 km/h (0 Bft) NO 45 8,6 C 18,0 C 1,8 km/h (1 Bft)
13.07.2013 20:55 16,5 C 60 % 1023,4 hPa 0,0 l/m 0,5 km/h (0 Bft) NO 45 8,7 C 17,4 C 0,0 km/h (0 Bft)
13.07.2013 21:00 16,4 C 60 % 1023,4 hPa 0,0 l/m 0,8 km/h (0 Bft) NO 45 8,6 C 16,9 C 1,8 km/h (1 Bft)
13.07.2013 21:05 16,3 C 60 % 1023,4 hPa 0,0 l/m 0,6 km/h (0 Bft) O 90 8,5 C 16,4 C 0,0 km/h (0 Bft)
13.07.2013 21:10 16,0 C 62 % 1023,4 hPa 0,0 l/m 0,5 km/h (0 Bft) O 90 8,7 C 16,2 C 0,0 km/h (0 Bft)
13.07.2013 21:15 15,8 C 65 % 1023,4 hPa 0,0 l/m 0,2 km/h (0 Bft) O 90 9,2 C 15,8 C 0,0 km/h (0 Bft)
13.07.2013 21:20 15,7 C 66 % 1023,5 hPa 0,0 l/m 0,2 km/h (0 Bft) O-SO 112 9,4 C 15,5 C 0,0 km/h (0 Bft)
13.07.2013 21:25 15,5 C 67 % 1023,5 hPa 0,0 l/m 0,0 km/h (0 Bft) O 90 9,4 C 15,4 C 0,0 km/h (0 Bft)
13.07.2013 21:30 15,5 C 67 % 1023,5 hPa 0,0 l/m 0,0 km/h (0 Bft) O 90 9,4 C 15,3 C 0,0 km/h (0 Bft)
13.07.2013 21:35 15,4 C 69 % 1023,5 hPa 0,0 l/m 0,0 km/h (0 Bft) O 90 9,7 C 15,2 C 0,0 km/h (0 Bft)
13.07.2013 21:40 15,6 C 68 % 1023,7 hPa 0,0 l/m 0,3 km/h (0 Bft) O 90 9,7 C 15,1 C 2,3 km/h (1 Bft)
13.07.2013 21:45 15,4 C 69 % 1023,7 hPa 0,0 l/m 1,0 km/h (0 Bft) O-SO 112 9,7 C 15,0 C 0,0 km/h (0 Bft)
13.07.2013 21:50 15,2 C 69 % 1023,7 hPa 0,0 l/m 0,8 km/h (0 Bft) O 90 9,6 C 14,9 C 2,1 km/h (1 Bft)
13.07.2013 21:55 15,3 C 68 % 1023,7 hPa 0,0 l/m 1,6 km/h (1 Bft) O 90 9,4 C 14,7 C 3,4 km/h (1 Bft)
13.07.2013 22:00 14,8 C 69 % 1023,8 hPa 0,0 l/m 2,3 km/h (1 Bft) O-SO 112 9,2 C 14,6 C 2,6 km/h (1 Bft)
13.07.2013 22:05 14,5 C 71 % 1023,8 hPa 0,0 l/m 2,4 km/h (1 Bft) NO 45 9,3 C 14,2 C 4,3 km/h (1 Bft)
13.07.2013 22:10 14,6 C 70 % 1023,8 hPa 0,0 l/m 3,1 km/h (1 Bft) O-NO 67 9,2 C 14,2 C 3,2 km/h (1 Bft)
13.07.2013 22:15 14,7 C 69 % 1023,8 hPa 0,0 l/m 3,5 km/h (1 Bft) O-NO 67 9,1 C 14,1 C 3,5 km/h (1 Bft)
13.07.2013 22:20 14,6 C 70 % 1024,1 hPa 0,0 l/m 3,7 km/h (1 Bft) N-NO 22 9,2 C 14,2 C 4,7 km/h (1 Bft)
13.07.2013 22:25 14,7 C 70 % 1024,1 hPa 0,0 l/m 3,9 km/h (1 Bft) NO 45 9,3 C 14,2 C 5,8 km/h (2 Bft)
13.07.2013 22:30 14,7 C 70 % 1024,1 hPa 0,0 l/m 4,3 km/h (1 Bft) NO 45 9,3 C 14,4 C 5,5 km/h (1 Bft)
13.07.2013 22:35 14,6 C 71 % 1024,1 hPa 0,0 l/m 4,3 km/h (1 Bft) O 90 9,4 C 14,6 C 4,7 km/h (1 Bft)
13.07.2013 22:40 14,6 C 71 % 1023,9 hPa 0,0 l/m 3,9 km/h (1 Bft) NO 45 9,4 C 14,6 C 3,9 km/h (1 Bft)
13.07.2013 22:45 14,5 C 71 % 1023,9 hPa 0,0 l/m 3,2 km/h (1 Bft) O 90 9,3 C 14,5 C 2,6 km/h (1 Bft)
13.07.2013 22:50 14,4 C 72 % 1023,9 hPa 0,0 l/m 2,6 km/h (1 Bft) O 90 9,4 C 14,4 C 2,4 km/h (1 Bft)
13.07.2013 22:55 14,4 C 72 % 1023,9 hPa 0,0 l/m 2,4 km/h (1 Bft) O 90 9,4 C 14,4 C 2,6 km/h (1 Bft)
13.07.2013 23:00 14,4 C 72 % 1023,9 hPa 0,0 l/m 1,8 km/h (1 Bft) O 90 9,4 C 14,4 C 1,6 km/h (1 Bft)
13.07.2013 23:05 14,4 C 72 % 1023,9 hPa 0,0 l/m 1,0 km/h (0 Bft) SO 135 9,4 C 14,5 C 2,3 km/h (1 Bft)
13.07.2013 23:10 14,4 C 72 % 1023,9 hPa 0,0 l/m 1,4 km/h (1 Bft) O-SO 112 9,4 C 14,5 C 2,9 km/h (1 Bft)
13.07.2013 23:15 14,3 C 71 % 1023,9 hPa 0,0 l/m 1,8 km/h (1 Bft) O 90 9,1 C 14,6 C 0,0 km/h (0 Bft)
13.07.2013 23:20 14,2 C 71 % 1024,1 hPa 0,0 l/m 1,0 km/h (0 Bft) O 90 9,0 C 14,4 C 0,0 km/h (0 Bft)
13.07.2013 23:25 13,8 C 71 % 1024,1 hPa 0,0 l/m 0,3 km/h (0 Bft) O 90 8,6 C 14,0 C 3,1 km/h (1 Bft)
13.07.2013 23:30 13,6 C 71 % 1024,1 hPa 0,0 l/m 1,0 km/h (0 Bft) NO 45 8,4 C 13,9 C 2,6 km/h (1 Bft)
13.07.2013 23:35 13,3 C 71 % 1024,1 hPa 0,0 l/m 1,3 km/h (1 Bft) S 180 8,2 C 13,7 C 0,0 km/h (0 Bft)
13.07.2013 23:40 13,3 C 71 % 1024,1 hPa 0,0 l/m 0,5 km/h (0 Bft) O 90 8,2 C 13,4 C 0,0 km/h (0 Bft)
13.07.2013 23:45 12,9 C 73 % 1024,1 hPa 0,0 l/m 0,0 km/h (0 Bft) O 90 8,2 C 13,0 C 0,0 km/h (0 Bft)
13.07.2013 23:50 12,7 C 73 % 1024,1 hPa 0,0 l/m 0,0 km/h (0 Bft) O 90 8,0 C 12,6 C 0,0 km/h (0 Bft)
13.07.2013 23:55 12,5 C 73 % 1024,1 hPa 0,0 l/m 0,0 km/h (0 Bft) O 90 7,8 C 12,2 C 0,0 km/h (0 Bft)
_ Min-Zeit 05:20 14:45 07:55 - 23:55 - - 05:20 05:25 23:55
Minimum _ 6,8 C 33 % 1021,9 hPa - 0,0 km/h (0 Bft) - - 5,3 C 6,4 C 0,0 km/h (0 Bft)
_ Max-Zeit 14:25 06:00 13:15 23:55 17:00 - - 08:45 15:40 12:15
Maximum _ 25,6 C 91 % 1024,2 hPa 0,0 l/m 6,1 km/h
SW (2 Bft)
- - 13,4 C 27,8 C 13,7 km/h
N-NO (3 Bft)
Durchschnitt _ 17,3 C 60 % 1023,2 hPa #0,0 l/m 2,1 km/h (1 Bft) W-NW - 8,3 C 17,9 C 2,7 km/h (1 Bft)